Location: Crescent
(42.8242°N, 73.7329°W)
Time: 14:53:51
(UTC+00:00)

Courier 1B - Pass Details

Date: 25 February 2026
Orbit: 962 x 1208 km, 28.3° (Epoch: 7 March)

Event Time Altitude Azimuth Distance (km) Brightness Sun altitude
Rises 23:36:53 0° 245° (WSW) 3,742 11.9 -11.3°
Reaches altitude 10° 23:40:02 10° 232° (SW) 2,829 10.8 -11.8°
Maximum altitude 23:45:24 24° 181° (S) 2,035 9.2 -12.8°
Drops below altitude 10° 23:51:01 10° 130° (SE) 2,974 9.6 -13.9°
Enters shadow 23:51:15 - 129° (SE) 3,033 9.6 -13.9°
